Temp
-14 -13 -13 -13 -10 -13 -12 -12 -13 -12 -12 -12 -12 -12 -12 -12 -11 -11 -12 -12 -12 -12 -12 -13 -13 -13 -14 -14 -13 -13 -13 -12
-13 -12 -11 -10 -9 -12 -11 -12 -13 -12 -12 -11 -12 -12 -13 -12 -12 -12 -12 -12 -11 -12 -12 -15 -14 -13 -14 -14 -13 -13 -13 -13
-12 -11 -10 -9 -10 -11 -11 -12 -13 -12 -11 -11 -12 -12 -12 -12 -12 -12 -12 -12 -12 -11 -12 -14 -14 -14 -14 -14 -14 -13 -13 -14
-11 -11 -9 -9 -9 -10 -11 -12 -12 -12 -12 -11 -12 -12 -12 -12 -12 -12 -12 -12 -12 -12 -13 -15 -15 -15 -14 -14 -13 -13 -14 -14
-11 -11 -10 -10 -10 -11 -12 -12 -12 -12 -12 -12 -12 -12 -12 -12 -12 -12 -12 -12 -12 -12 -13 -15 -15 -15 -14 -14 -14 -14 -14 -14
-13 -12 -11 -11 -11 -11 -12 -12 -12 -12 -12 -12 -11 -11 -13 -12 -13 -12 -12 -12 -13 -13 -14 -16 -15 -15 -14 -14 -14 -14 -14 -14
-13 -13 -12 -12 -11 -12 -12 -12 -12 -12 -12 -12 -12 -12 -12 -12 -13 -12 -12 -13 -14 -14 -15 -16 -15 -15 -14 -15 -14 -14 -14 -14
-11 -12 -12 -12 -12 -12 -12 -12 -12 -12 -12 -12 -12 -12 -12 -12 -13 -12 -13 -14 -15 -15 -16 -16 -15 -15 -15 -15 -15 -14 -14 -14
-11 -11 -11 -12 -12 -12 -11 -12 -12 -11 -13 -12 -12 -12 -12 -12 -13 -13 -14 -14 -16 -16 -16 -15 -15 -15 -14 -14 -14 -14 -14 -14
-11 -11 -11 -11 -11 -12 -12 -11 -13 -12 -12 -12 -12 -13 -12 -12 -13 -13 -15 -15 -16 -16 -15 -15 -15 -15 -15 -15 -15 -14 -14 -15
-11 -11 -11 -11 -11 -12 -12 -11 -12 -12 -12 -13 -13 -13 -13 -13 -13 -15 -16 -16 -15 -15 -15 -15 -15 -15 -15 -15 -15 -14 -15 -15
-12 -12 -12 -12 -12 -12 -12 -12 -13 -12 -12 -13 -13 -13 -14 -14 -15 -15 -15 -15 -15 -15 -15 -15 -15 -15 -15 -15 -15 -15 -15 -15
-12 -12 -13 -12 -12 -11 -11 -12 -13 -13 -13 -13 -14 -14 -13 -14 -15 -15 -15 -15 -15 -15 -15 -15 -15 -15 -15 -15 -15 -15 -15 -15
-12 -12 -12 -12 -11 -11 -12 -13 -13 -14 -14 -15 -15 -15 -15 -15 -15 -15 -15 -15 -16 -15 -16 -15 -15 -15 -15 -15 -15 -15 -16 -16
-13 -13 -13 -13 -13 -13 -14 -14 -14 -14 -14 -15 -15 -15 -15 -15 -15 -15 -15 -15 -16 -15 -15 -15 -16 -16 -15 -15 -15 -16 -16 -16
-14 -14 -14 -14 -14 -14 -14 -14 -14 -14 -14 -14 -14 -15 -15 -15 -15 -15 -15 -16 -16 -16 -16 -16 -16 -16 -16 -16 -16 -16 -16 -16
-14 -14 -13 -13 -13 -14 -14 -14 -14 -14 -14 -14 -15 -15 -15 -15 -15 -15 -16 -16 -16 -16 -16 -16 -16 -16 -16 -16 -17 -17 -17 -16
-14 -14 -14 -13 -14 -14 -13 -13 -14 -14 -14 -14 -14 -14 -15 -15 -15 -15 -16 -16 -16 -17 -16 -16 -16 -16 -16 -16 -16 -17 -17 -17
-15 -14 -14 -14 -14 -14 -14 -14 -14 -14 -14 -14 -15 -15 -15 -15 -16 -16 -16 -16 -16 -16 -16 -16 -16 -16 -16 -16 -17 -17 -17 -17
-15 -14 -14 -15 -14 -14 -14 -14 -14 -15 -15 -15 -15 -15 -16 -16 -15 -16 -16 -16 -16 -16 -16 -16 -16 -17 -16 -16 -17 -17 -18 -17
Height
5755 5755 5756 5758 5764 5782 5788 5794 5799 5803 5807 5812 5814 5816 5817 5819 5820 5821 5822 5821 5820 5820 5820 5820 5821 5827 5826 5826 5826 5826 5825 5824
5744 5743 5749 5746 5747 5773 5777 5789 5793 5800 5805 5808 5809 5812 5813 5816 5816 5815 5816 5816 5814 5813 5814 5814 5815 5818 5822 5822 5822 5823 5823 5822
5743 5726 5739 5722 5747 5765 5772 5779 5788 5796 5800 5801 5804 5807 5809 5809 5810 5810 5810 5810 5811 5810 5810 5810 5809 5814 5818 5818 5819 5818 5818 5818
5737 5735 5725 5728 5752 5761 5768 5777 5786 5791 5794 5797 5800 5802 5804 5804 5805 5804 5804 5805 5806 5806 5805 5806 5807 5810 5814 5814 5814 5815 5815 5815
5737 5736 5730 5740 5752 5756 5766 5773 5782 5788 5790 5792 5794 5797 5796 5798 5797 5799 5798 5799 5800 5800 5800 5801 5804 5807 5811 5811 5810 5811 5813 5812
5742 5741 5743 5741 5751 5755 5765 5774 5780 5782 5784 5787 5788 5791 5792 5793 5793 5793 5794 5793 5793 5795 5795 5797 5800 5803 5808 5808 5808 5808 5809 5809
5746 5746 5748 5752 5754 5757 5765 5771 5774 5775 5779 5784 5784 5786 5788 5787 5788 5788 5789 5788 5787 5789 5792 5796 5797 5800 5803 5805 5806 5806 5805 5805
5746 5747 5749 5751 5753 5759 5766 5768 5771 5772 5775 5778 5779 5781 5782 5782 5782 5783 5783 5783 5784 5786 5791 5794 5796 5797 5800 5802 5803 5803 5802 5800
5741 5743 5747 5751 5752 5756 5760 5764 5764 5767 5769 5771 5774 5773 5776 5777 5777 5777 5778 5777 5781 5785 5788 5791 5792 5794 5796 5797 5797 5798 5796 5796
5744 5744 5746 5748 5749 5751 5754 5758 5760 5759 5764 5765 5767 5769 5771 5770 5770 5771 5773 5776 5780 5782 5786 5788 5788 5790 5791 5792 5792 5793 5792 5791
5739 5742 5745 5745 5746 5748 5748 5751 5754 5756 5758 5759 5761 5762 5762 5763 5764 5766 5771 5776 5779 5780 5782 5784 5784 5786 5786 5786 5787 5787 5786 5785
5734 5736 5740 5740 5743 5743 5745 5746 5749 5748 5750 5754 5755 5757 5757 5759 5761 5766 5769 5773 5776 5778 5780 5781 5781 5782 5782 5782 5782 5781 5781 5779
5730 5733 5734 5734 5736 5736 5737 5737 5741 5744 5747 5749 5750 5754 5757 5758 5761 5765 5768 5771 5774 5775 5776 5778 5778 5778 5779 5777 5776 5774 5773 5771
5731 5732 5734 5733 5736 5736 5736 5737 5740 5741 5746 5747 5751 5756 5758 5760 5762 5764 5767 5769 5770 5771 5771 5773 5773 5771 5772 5771 5770 5769 5766 5764
5731 5733 5733 5733 5734 5737 5739 5741 5742 5745 5746 5747 5753 5754 5755 5757 5759 5760 5763 5764 5764 5765 5766 5766 5766 5764 5763 5763 5762 5759 5756 5754
5732 5734 5734 5735 5735 5739 5740 5740 5744 5743 5745 5749 5750 5751 5751 5753 5755 5757 5758 5758 5758 5759 5760 5760 5759 5757 5756 5756 5753 5751 5748 5745
5731 5732 5733 5736 5738 5739 5742 5743 5743 5744 5745 5746 5746 5747 5749 5751 5750 5751 5752 5753 5754 5753 5753 5753 5752 5750 5749 5747 5745 5742 5739 5735
5729 5732 5733 5735 5736 5737 5740 5741 5739 5738 5740 5741 5741 5743 5744 5745 5745 5745 5746 5747 5747 5747 5746 5744 5743 5740 5738 5735 5732 5730 5728 5725
5728 5730 5733 5734 5734 5735 5735 5735 5735 5737 5738 5739 5740 5740 5739 5739 5740 5741 5741 5741 5740 5738 5737 5735 5733 5730 5726 5725 5723 5720 5717 5715
5731 5731 5731 5731 5731 5732 5732 5732 5734 5734 5735 5735 5736 5735 5733 5734 5735 5735 5734 5733 5732 5731 5730 5727 5725 5722 5718 5715 5711 5709 5706 5702
Wind_Speed
54 56 54 61 53 47 37 39 37 34 30 28 28 23 25 26 24 23 24 21 22 23 25 28 25 22 16 13 17 14 13 9
33 43 45 52 49 53 45 44 35 31 26 25 23 27 27 27 26 24 22 22 28 26 29 24 29 31 15 14 15 12 10 9
34 34 51 51 64 47 40 37 31 29 29 26 23 24 27 26 27 29 28 24 25 26 22 19 19 16 14 16 16 12 11 10
26 17 43 54 57 44 42 33 27 26 26 26 24 29 28 27 24 19 17 19 23 29 23 18 15 13 17 15 15 12 12 12
14 5 31 49 52 42 35 32 29 27 24 20 23 27 19 19 23 16 14 18 22 30 21 21 19 16 16 16 16 14 13 13
13 10 10 23 40 33 30 25 29 29 25 21 24 28 12 11 16 18 20 19 24 24 21 20 18 18 18 16 17 16 15 15
7 10 2 13 12 18 30 16 16 25 33 19 15 17 22 20 20 19 22 20 18 23 21 19 18 19 17 15 15 16 17 17
5 7 3 5 6 9 13 16 17 10 13 14 14 16 18 19 19 20 18 20 23 24 22 19 18 15 15 15 17 17 19 21
8 8 9 9 12 12 14 18 15 26 22 16 17 17 16 18 18 20 17 22 24 20 17 18 15 14 17 18 20 20 21 23
14 14 13 13 14 16 14 19 15 12 22 26 23 18 19 16 21 20 21 25 23 18 18 17 15 17 19 21 22 23 23 26
11 11 9 11 14 15 16 14 17 18 20 17 21 21 19 21 17 17 26 20 18 17 17 18 18 19 21 22 25 26 27 29
8 8 9 9 12 12 20 18 21 15 17 19 23 28 19 18 19 21 20 16 16 18 18 18 18 19 22 26 28 27 28 30
1 11 10 7 8 8 10 11 16 17 18 21 16 15 17 19 18 19 17 17 19 20 18 19 20 23 26 29 30 30 32 32
6 9 11 7 4 3 7 11 13 13 17 19 17 17 17 19 14 12 16 19 19 18 18 20 23 27 30 33 34 31 32 34
12 12 12 9 9 12 11 13 14 16 14 10 10 13 13 11 13 12 18 19 16 18 21 23 25 32 34 38 39 34 36 38
15 13 14 13 12 10 9 9 9 8 7 7 7 8 8 13 13 13 16 19 20 23 24 26 26 33 37 41 43 43 46 48
9 9 10 10 12 10 8 7 5 5 5 5 7 9 12 17 17 15 19 19 22 26 31 28 27 28 31 33 37 40 44 49
4 5 6 7 6 7 8 8 8 6 6 6 6 12 15 17 15 15 18 19 19 22 25 28 32 33 34 34 36 37 36 39
3 3 3 5 4 4 5 5 7 10 12 14 12 11 15 15 14 16 17 19 23 27 29 33 37 40 44 46 52 36 41 41
4 5 4 5 7 8 8 9 10 12 14 15 14 13 14 16 16 20 22 25 26 29 33 37 41 43 49 52 47 42 45 43
Wind_Direction
246 243 245 228 195 201 208 213 220 230 239 252 266 250 254 255 261 255 254 258 260 263 264 253 249 242 223 244 251 267 277 260
272 239 233 202 182 208 199 212 216 229 241 248 253 252 257 259 261 255 261 266 264 260 258 241 237 244 253 248 258 258 257 252
268 253 196 186 180 206 186 200 215 231 239 243 258 255 254 256 254 255 261 259 277 280 258 250 256 235 234 251 256 257 243 254
300 262 201 189 185 182 204 211 218 236 246 245 251 256 256 262 246 272 266 262 268 269 250 242 224 233 246 248 251 241 238 251
324 292 163 192 181 197 194 206 223 233 242 244 252 256 265 262 261 265 277 267 266 262 238 220 220 230 241 239 247 244 248 259
354 38 210 186 184 180 212 211 226 232 232 245 245 234 255 270 263 259 274 271 267 241 221 210 215 231 240 243 236 240 251 264
353 333 70 164 156 164 189 200 207 224 224 249 235 235 260 253 282 257 258 260 250 217 200 211 219 231 241 231 237 250 263 271
285 273 255 280 286 149 196 215 199 196 207 240 247 260 267 271 254 254 253 249 227 205 197 215 229 237 236 231 240 249 264 271
241 257 243 240 230 188 220 225 204 225 234 257 251 258 258 266 245 250 241 228 195 190 205 223 226 237 235 246 249 257 268 277
219 224 236 232 225 241 231 218 234 218 251 254 261 252 254 248 241 237 224 201 185 194 216 226 231 236 238 246 256 265 271 277
240 229 231 233 239 237 219 210 252 251 229 245 244 257 263 235 227 201 181 186 200 205 218 233 236 238 250 260 264 271 280 287
284 241 251 232 233 237 225 207 231 235 240 241 236 254 234 199 180 174 187 199 213 226 239 243 243 254 262 266 273 278 285 293
292 230 264 258 254 222 212 201 218 229 235 239 222 197 190 189 187 196 199 213 231 245 243 246 253 258 263 270 278 285 289 292
186 201 221 222 222 151 154 150 166 143 150 152 158 167 176 186 195 205 220 232 240 242 243 252 262 267 271 275 278 281 283 285
139 158 141 130 125 122 127 138 143 155 158 153 178 185 195 209 224 226 234 240 240 245 254 262 266 273 279 283 281 281 284 288
108 119 128 124 122 132 133 137 166 163 170 194 216 229 242 223 228 243 243 249 259 266 270 270 278 280 280 280 282 281 285 288
139 99 95 108 120 127 142 152 155 169 177 202 215 226 232 234 245 253 251 267 270 274 277 279 275 286 286 287 280 278 286 285
117 141 156 176 166 166 179 190 200 207 217 226 248 250 249 239 248 255 263 271 277 282 284 288 288 287 281 282 285 284 294 287
344 316 310 310 297 274 262 240 232 226 237 249 261 265 256 252 261 255 263 276 280 282 289 292 292 285 286 288 281 292 286 286
279 293 303 305 303 294 281 274 264 256 266 267 264 269 253 251 262 269 272 275 281 285 287 288 284 287 283 281 298 288 296 294